Miscellaneous Local Product
Issued by NWS Hastings, NE

Home | Current Version | Previous Version | Graphics & Text | Print | Product List | Glossary On
Versions: 1 2 3 4 5 6 7 8 9 10 11 12 13 14 15 16 17 18 19 20 21 22 23 24 25 26 27 28 29 30 31 32 33 34 35 36 37 38 39 40 41 42 43 44 45 46 47 48 49 50
753
AXUS43 KGID 290502
MISGRI

GID CWA HOURLY WEATHER ROUNDUP
NATIONAL WEATHER SERVICE HASTINGS NE
1200 AM CDT FRI JUL 29 2016

NOTE: "FAIR" INDICATES FEW OR NO CLOUDS BELOW 12,000 FEET WITH NO
SIGNIFICANT WEATHER AND/OR OBSTRUCTIONS TO VISIBILITY.

...SOUTH CENTRAL NEBRASKA...

CITY           SKY/WX    TMP DP  RH WIND       PRES   REMARKS
GRAND ISLAND   CLOUDY    69  66  90 CALM      30.09S
HASTINGS       MOCLDY    66  64  93 CALM      30.10S
ORD            LGT RAIN  68  65  90 CALM      30.09S
YORK           CLOUDY    66  64  94 CALM      30.07F
AURORA         CLOUDY    66  65  97 N3        30.08S
LEXINGTON      MOCLDY    65  64  94 NE3       30.11S
HOLDREGE       CLEAR     64  63  94 CALM      30.10S
HEBRON         MOCLDY    68  64  86 CALM      30.05F

...NEBRASKA PANHANDLE...

CITY           SKY/WX    TMP DP  RH WIND       PRES   REMARKS
CHADRON        CLEAR     63  59  87 N5        30.15S
ALLIANCE       CLEAR     60  56  86 SE3       30.17S
SCOTTSBLUFF    CLEAR     65  60  84 N3        30.18R
SIDNEY         CLEAR     61  58  90 S7        30.20S

...WESTERN AND NORTH CENTRAL NEBRASKA...

CITY           SKY/WX    TMP DP  RH WIND       PRES   REMARKS
VALENTINE      CLEAR     61  59  93 NE3       30.13S
AINSWORTH      CLEAR     61  61 100 CALM      30.14S
ONEILL         CLOUDY    67  64  92 NW7       30.12R
BROKEN BOW     MOCLDY    63  62  97 SE6       30.11F
IMPERIAL       CLEAR     63  60  90 SE6       30.13F
NORTH PLATTE   CLEAR     61  59  93 CALM      30.12S
MCCOOK         CLEAR     64  61  90 CALM      30.11S

...EASTERN NEBRASKA...

CITY           SKY/WX    TMP DP  RH WIND       PRES   REMARKS
NORFOLK        PTCLDY    70  61  73 NE3       30.08R
SO SIOUX CITY  PTCLDY    71  62  73 CALM      30.06R
TEKAMAH        CLOUDY    70  65  84 NW3       30.05R
COLUMBUS       CLOUDY    70  61  73 CALM      30.07S
ALBION         RAIN      68  64  88 CALM      30.09S
OMAHA EPPLEY   CLOUDY    72  64  76 N3        30.04R
MILLARD        CLOUDY    74  63  68 CALM      30.04F
LINCOLN        CLOUDY    73  64  73 NE6       30.05F
NEBRASKA CITY  CLOUDY    71  65  82 NE3       30.03F
BEATRICE       CLOUDY    71  63  76 NE6       30.03F
FALLS CITY     CLOUDY    74  67  78 NE5       30.00R

...NORTHERN KANSAS...

CITY           SKY/WX    TMP DP  RH WIND       PRES   REMARKS
GOODLAND       CLOUDY    65  60  84 NE6       30.15S
HILL CITY      CLOUDY    69  66  90 NE7       30.09F
NORTON         PTCLDY    68  63  83 CALM      30.10S
SMITH CENTER   CLOUDY    68  66  94 N10       30.07F
BELOIT         MOCLDY    68  66  94 S6        30.03S
HAYS           CLOUDY    70  59  68 NW6       30.10R
RUSSELL        MOCLDY    69  66  90 S6        30.05F
CONCORDIA      PTCLDY    68  66  93 CALM      30.03F
SALINA         MOCLDY    70  67  90 NW6       30.04R
TOPEKA         CLOUDY    69  67  93 W6        30.00R



USA.gov is the U.S. government's official web portal to all federal, state and local government web resources and services.